Time,TemperatureF,DewpointF,PressureIn,WindDirection,WindDirectionDegrees,WindSpeedMPH,WindSpeedGustMPH,Humidity,HourlyPrecipIn,Conditions,Clouds,dailyrainin,SoftwareType,DateUTC
2013-03-30 00:00:00,40.8,36.0,30.03,WNW,302,1.0,1.0,83,0.00,,,0.00,Wunderground v.1.15,2013-03-30 04:00:00,
2013-03-30 00:01:00,40.8,36.0,30.03,West,281,1.0,1.0,83,0.00,,,0.00,Wunderground v.1.15,2013-03-30 04:01:00,
2013-03-30 00:02:00,40.9,35.8,30.03,West,279,1.0,1.0,82,0.00,,,0.00,Wunderground v.1.15,2013-03-30 04:02:00,
2013-03-30 00:04:00,40.9,35.8,30.03,WNW,290,1.0,2.0,82,0.00,,,0.00,Wunderground v.1.15,2013-03-30 04:04:00,
2013-03-30 00:09:00,41.1,35.4,30.03,WNW,295,1.0,5.0,80,0.00,,,0.00,Wunderground v.1.15,2013-03-30 04:09:00,
2013-03-30 00:14:00,41.4,35.4,30.03,WNW,297,2.0,2.0,79,0.00,,,0.00,Wunderground v.1.15,2013-03-30 04:14:00,
2013-03-30 00:19:00,41.5,35.2,30.03,WNW,290,1.0,2.0,78,0.00,,,0.00,Wunderground v.1.15,2013-03-30 04:19:00,
2013-03-30 00:25:00,41.6,35.2,30.03,WNW,292,1.0,3.0,78,0.00,,,0.00,Wunderground v.1.15,2013-03-30 04:25:00,
2013-03-30 00:30:00,41.6,35.2,30.03,NW,311,1.0,1.0,78,0.00,,,0.00,Wunderground v.1.15,2013-03-30 04:30:00,
2013-03-30 00:36:00,41.6,35.2,30.03,NW,318,1.0,1.0,78,0.00,,,0.00,Wunderground v.1.15,2013-03-30 04:36:00,
2013-03-30 00:42:00,41.6,35.2,30.03,NW,322,0.0,0.0,78,0.00,,,0.00,Wunderground v.1.15,2013-03-30 04:42:00,
2013-03-30 00:47:00,41.6,34.9,30.03,NW,322,0.0,0.0,77,0.00,,,0.00,Wunderground v.1.15,2013-03-30 04:47:00,
2013-03-30 00:53:00,41.6,35.2,30.03,NW,311,0.0,1.0,78,0.00,,,0.00,Wunderground v.1.15,2013-03-30 04:53:00,
2013-03-30 00:58:00,41.6,35.2,30.03,NW,311,0.0,1.0,78,0.00,,,0.00,Wunderground v.1.15,2013-03-30 04:58:00,
2013-03-30 01:03:00,41.5,34.8,30.03,NW,311,0.0,0.0,77,0.00,,,0.00,Wunderground v.1.15,2013-03-30 05:03:00,
2013-03-30 01:08:00,41.5,34.8,30.03,NW,311,0.0,2.0,77,0.00,,,0.00,Wunderground v.1.15,2013-03-30 05:08:00,
2013-03-30 01:14:00,41.4,35.1,30.03,NW,311,0.0,0.0,78,0.00,,,0.00,Wunderground v.1.15,2013-03-30 05:14:00,
2013-03-30 01:19:00,41.3,35.0,30.03,West,269,0.0,5.0,78,0.00,,,0.00,Wunderground v.1.15,2013-03-30 05:19:00,
2013-03-30 01:25:00,41.6,34.9,30.03,WNW,292,2.0,3.0,77,0.00,,,0.00,Wunderground v.1.15,2013-03-30 05:25:00,
2013-03-30 01:30:00,41.9,34.9,30.03,WNW,300,2.0,2.0,76,0.00,,,0.00,Wunderground v.1.15,2013-03-30 05:30:00,
2013-03-30 01:35:00,42.1,35.1,30.03,NW,309,1.0,2.0,76,0.00,,,0.00,Wunderground v.1.15,2013-03-30 05:35:00,
2013-03-30 01:40:00,42.2,35.2,30.03,NW,313,1.0,1.0,76,0.00,,,0.00,Wunderground v.1.15,2013-03-30 05:40:00,
2013-03-30 01:46:00,42.3,35.6,30.03,NW,314,1.0,1.0,77,0.00,,,0.00,Wunderground v.1.15,2013-03-30 05:46:00,
2013-03-30 01:51:00,42.2,35.5,30.03,WNW,302,0.0,0.0,77,0.00,,,0.00,Wunderground v.1.15,2013-03-30 05:51:00,
2013-03-30 01:57:00,42.2,35.2,30.03,WNW,303,1.0,1.0,76,0.00,,,0.00,Wunderground v.1.15,2013-03-30 05:57:00,
2013-03-30 02:02:00,42.1,35.1,30.03,WNW,283,1.0,2.0,76,0.00,,,0.00,Wunderground v.1.15,2013-03-30 06:02:00,
2013-03-30 02:07:00,42.1,35.1,30.03,WNW,287,1.0,2.0,76,0.00,,,0.00,Wunderground v.1.15,2013-03-30 06:07:00,
2013-03-30 02:13:00,42.1,34.7,30.03,WNW,300,1.0,1.0,75,0.00,,,0.00,Wunderground v.1.15,2013-03-30 06:13:00,
2013-03-30 02:19:00,42.1,34.7,30.03,WNW,291,1.0,5.0,75,0.00,,,0.00,Wunderground v.1.15,2013-03-30 06:19:00,
2013-03-30 02:24:00,42.1,34.7,30.03,West,280,1.0,1.0,75,0.00,,,0.00,Wunderground v.1.15,2013-03-30 06:24:00,
2013-03-30 02:30:00,42.2,34.8,30.03,West,267,1.0,1.0,75,0.00,,,0.00,Wunderground v.1.15,2013-03-30 06:30:00,
2013-03-30 02:35:00,42.2,34.8,30.03,West,280,1.0,1.0,75,0.00,,,0.00,Wunderground v.1.15,2013-03-30 06:35:00,
2013-03-30 02:40:00,42.2,35.2,30.03,West,279,1.0,1.0,76,0.00,,,0.00,Wunderground v.1.15,2013-03-30 06:40:00,
2013-03-30 02:46:00,42.2,35.2,30.03,WNW,293,1.0,3.0,76,0.00,,,0.00,Wunderground v.1.15,2013-03-30 06:46:00,
2013-03-30 02:52:00,42.2,35.2,30.03,West,280,1.0,6.0,76,0.00,,,0.00,Wunderground v.1.15,2013-03-30 06:52:00,
2013-03-30 02:57:00,42.3,35.3,30.03,WNW,290,2.0,6.0,76,0.00,,,0.00,Wunderground v.1.15,2013-03-30 06:57:00,
2013-03-30 03:03:00,42.4,35.0,30.03,West,274,2.0,2.0,75,0.00,,,0.00,Wunderground v.1.15,2013-03-30 07:03:00,
2013-03-30 03:09:00,42.4,35.0,30.03,NW,319,1.0,2.0,75,0.00,,,0.00,Wunderground v.1.15,2013-03-30 07:09:00,
2013-03-30 03:14:00,42.4,35.0,30.03,WNW,298,1.0,4.0,75,0.00,,,0.00,Wunderground v.1.15,2013-03-30 07:14:00,
2013-03-30 03:20:00,42.4,35.0,30.03,WNW,284,1.0,1.0,75,0.00,,,0.00,Wunderground v.1.15,2013-03-30 07:20:00,
2013-03-30 03:25:00,42.5,35.1,30.03,NW,309,1.0,4.0,75,0.00,,,0.00,Wunderground v.1.15,2013-03-30 07:25:00,
2013-03-30 03:30:00,42.5,35.1,30.03,WNW,284,1.0,1.0,75,0.00,,,0.00,Wunderground v.1.15,2013-03-30 07:30:00,
2013-03-30 03:35:00,42.5,35.1,30.03,WNW,292,1.0,5.0,75,0.00,,,0.00,Wunderground v.1.15,2013-03-30 07:35:00,
2013-03-30 03:41:00,42.4,35.0,30.03,West,269,1.0,1.0,75,0.00,,,0.00,Wunderground v.1.15,2013-03-30 07:41:00,
2013-03-30 03:46:00,42.4,35.0,30.03,WNW,300,0.0,1.0,75,0.00,,,0.00,Wunderground v.1.15,2013-03-30 07:46:00,
2013-03-30 03:52:00,42.3,35.3,30.03,NW,324,0.0,3.0,76,0.00,,,0.00,Wunderground v.1.15,2013-03-30 07:52:00,
2013-03-30 03:57:00,42.2,35.2,30.03,NW,310,1.0,3.0,76,0.00,,,0.00,Wunderground v.1.15,2013-03-30 07:57:00,
2013-03-30 04:03:00,42.0,35.3,30.03,West,272,0.0,0.0,77,0.00,,,0.00,Wunderground v.1.15,2013-03-30 08:03:00,
2013-03-30 04:09:00,41.9,35.2,30.03,NW,308,0.0,1.0,77,0.00,,,0.00,Wunderground v.1.15,2013-03-30 08:09:00,
2013-03-30 04:15:00,41.7,35.0,30.03,WNW,286,0.0,1.0,77,0.00,,,0.00,Wunderground v.1.15,2013-03-30 08:15:00,
2013-03-30 04:20:00,41.6,35.2,30.03,West,279,0.0,0.0,78,0.00,,,0.00,Wunderground v.1.15,2013-03-30 08:20:00,
2013-03-30 04:26:00,41.5,35.2,30.03,NW,309,0.0,1.0,78,0.00,,,0.00,Wunderground v.1.15,2013-03-30 08:26:00,
2013-03-30 04:31:00,41.5,35.2,30.03,WNW,300,0.0,4.0,78,0.00,,,0.00,Wunderground v.1.15,2013-03-30 08:31:00,
2013-03-30 04:37:00,41.5,35.5,30.03,NW,306,1.0,4.0,79,0.00,,,0.00,Wunderground v.1.15,2013-03-30 08:37:00,
2013-03-30 04:43:00,41.5,35.5,30.03,NW,306,0.0,1.0,79,0.00,,,0.00,Wunderground v.1.15,2013-03-30 08:43:00,
2013-03-30 04:48:00,41.5,35.5,30.03,NW,306,0.0,1.0,79,0.00,,,0.00,Wunderground v.1.15,2013-03-30 08:48:00,
2013-03-30 04:54:00,41.4,35.4,30.03,NW,306,0.0,0.0,79,0.00,,,0.00,Wunderground v.1.15,2013-03-30 08:54:00,
2013-03-30 04:59:00,41.4,35.4,30.03,NW,306,0.0,0.0,79,0.00,,,0.00,Wunderground v.1.15,2013-03-30 08:59:00,
2013-03-30 05:05:00,41.4,35.4,30.03,NW,306,0.0,0.0,79,0.00,,,0.00,Wunderground v.1.15,2013-03-30 09:05:00,
2013-03-30 05:11:00,41.4,35.7,30.03,NW,306,0.0,0.0,80,0.00,,,0.00,Wunderground v.1.15,2013-03-30 09:11:00,
2013-03-30 05:16:00,41.3,35.6,30.03,NW,306,0.0,0.0,80,0.00,,,0.00,Wunderground v.1.15,2013-03-30 09:16:00,
2013-03-30 05:22:00,41.3,35.6,30.03,NW,306,0.0,1.0,80,0.00,,,0.00,Wunderground v.1.15,2013-03-30 09:22:00,
2013-03-30 05:28:00,41.2,35.5,30.03,NW,306,0.0,1.0,80,0.00,,,0.00,Wunderground v.1.15,2013-03-30 09:28:00,
2013-03-30 05:33:00,41.2,35.5,30.03,NW,304,0.0,1.0,80,0.00,,,0.00,Wunderground v.1.15,2013-03-30 09:33:00,
2013-03-30 05:34:00,41.2,35.5,30.03,NW,304,0.0,1.0,80,0.00,,,0.00,Wunderground v.1.15,2013-03-30 09:34:00,
2013-03-30 05:39:00,41.2,35.5,30.03,NW,306,0.0,3.0,80,0.00,,,0.00,Wunderground v.1.15,2013-03-30 09:39:00,
2013-03-30 05:45:00,41.2,35.5,30.03,WNW,303,0.0,1.0,80,0.00,,,0.00,Wunderground v.1.15,2013-03-30 09:45:00,
2013-03-30 05:50:00,41.1,35.4,30.04,NW,311,0.0,1.0,80,0.00,,,0.00,Wunderground v.1.15,2013-03-30 09:50:00,
2013-03-30 05:56:00,41.1,35.4,30.04,WNW,301,1.0,2.0,80,0.00,,,0.00,Wunderground v.1.15,2013-03-30 09:56:00,
2013-03-30 06:01:00,41.1,35.1,30.04,WNW,301,0.0,0.0,79,0.00,,,0.00,Wunderground v.1.15,2013-03-30 10:01:00,
2013-03-30 06:07:00,41.0,35.0,30.04,NW,313,0.0,2.0,79,0.00,,,0.00,Wunderground v.1.15,2013-03-30 10:07:00,
2013-03-30 06:13:00,41.0,35.0,30.04,WNW,294,0.0,0.0,79,0.00,,,0.00,Wunderground v.1.15,2013-03-30 10:13:00,
2013-03-30 06:19:00,40.9,34.9,30.04,WNW,294,0.0,2.0,79,0.00,,,0.00,Wunderground v.1.15,2013-03-30 10:19:00,
2013-03-30 06:24:00,40.9,35.2,30.04,WNW,294,0.0,0.0,80,0.00,,,0.00,Wunderground v.1.15,2013-03-30 10:24:00,
2013-03-30 06:30:00,40.7,35.0,30.04,WNW,294,0.0,0.0,80,0.00,,,0.00,Wunderground v.1.15,2013-03-30 10:30:00,
2013-03-30 06:35:00,40.7,35.0,30.04,WNW,294,0.0,0.0,80,0.00,,,0.00,Wunderground v.1.15,2013-03-30 10:35:00,
2013-03-30 06:40:00,40.6,34.9,30.05,WNW,294,0.0,0.0,80,0.00,,,0.00,Wunderground v.1.15,2013-03-30 10:40:00,
2013-03-30 06:45:00,40.5,34.8,30.05,WNW,286,0.0,1.0,80,0.00,,,0.00,Wunderground v.1.15,2013-03-30 10:45:00,
2013-03-30 06:51:00,40.5,35.1,30.05,NW,312,0.0,2.0,81,0.00,,,0.00,Wunderground v.1.15,2013-03-30 10:51:00,
2013-03-30 06:56:00,40.6,34.9,30.05,WNW,298,1.0,2.0,80,0.00,,,0.00,Wunderground v.1.15,2013-03-30 10:56:00,
2013-03-30 07:02:00,40.7,35.0,30.05,NW,305,0.0,1.0,80,0.00,,,0.00,Wunderground v.1.15,2013-03-30 11:02:00,
2013-03-30 07:08:00,40.8,35.1,30.05,NW,305,0.0,2.0,80,0.00,,,0.00,Wunderground v.1.15,2013-03-30 11:08:00,
2013-03-30 07:14:00,41.0,35.0,30.05,WNW,297,1.0,4.0,79,0.00,,,0.00,Wunderground v.1.15,2013-03-30 11:14:00,
2013-03-30 07:19:00,41.1,35.1,30.06,WNW,291,1.0,4.0,79,0.00,,,0.00,Wunderground v.1.15,2013-03-30 11:19:00,
2013-03-30 07:25:00,41.3,35.0,30.06,WNW,302,1.0,3.0,78,0.00,,,0.00,Wunderground v.1.15,2013-03-30 11:25:00,
2013-03-30 07:30:00,41.5,35.2,30.06,West,276,0.0,0.0,78,0.00,,,0.00,Wunderground v.1.15,2013-03-30 11:30:00,
2013-03-30 07:35:00,41.6,35.2,30.06,WNW,294,0.0,1.0,78,0.00,,,0.00,Wunderground v.1.15,2013-03-30 11:35:00,
2013-03-30 07:41:00,41.7,35.0,30.06,WNW,299,1.0,4.0,77,0.00,,,0.00,Wunderground v.1.15,2013-03-30 11:41:00,
2013-03-30 07:47:00,41.8,34.8,30.06,West,262,2.0,4.0,76,0.00,,,0.00,Wunderground v.1.15,2013-03-30 11:47:00,
2013-03-30 07:52:00,41.8,34.8,30.06,WNW,292,2.0,3.0,76,0.00,,,0.00,Wunderground v.1.15,2013-03-30 11:52:00,
2013-03-30 07:57:00,42.1,34.7,30.06,WNW,294,2.0,3.0,75,0.00,,,0.00,Wunderground v.1.15,2013-03-30 11:57:00,
2013-03-30 08:03:00,42.7,35.0,30.06,WNW,286,1.0,1.0,74,0.00,,,0.00,Wunderground v.1.15,2013-03-30 12:03:00,
2013-03-30 08:09:00,43.5,35.1,30.06,WNW,292,2.0,3.0,72,0.00,,,0.00,Wunderground v.1.15,2013-03-30 12:09:00,
2013-03-30 08:15:00,44.3,35.5,30.06,NW,323,3.0,6.0,71,0.00,,,0.00,Wunderground v.1.15,2013-03-30 12:15:00,
2013-03-30 08:20:00,44.9,35.3,30.07,WNW,286,3.0,3.0,69,0.00,,,0.00,Wunderground v.1.15,2013-03-30 12:20:00,
2013-03-30 08:25:00,45.6,35.6,30.06,West,277,3.0,5.0,68,0.00,,,0.00,Wunderground v.1.15,2013-03-30 12:25:00,
2013-03-30 08:30:00,46.4,36.4,30.06,WNW,293,2.0,4.0,68,0.00,,,0.00,Wunderground v.1.15,2013-03-30 12:30:00,
2013-03-30 08:36:00,46.8,35.6,30.07,NW,304,2.0,6.0,65,0.00,,,0.00,Wunderground v.1.15,2013-03-30 12:36:00,
2013-03-30 08:42:00,47.1,35.1,30.07,NW,313,3.0,9.0,63,0.00,,,0.00,Wunderground v.1.15,2013-03-30 12:42:00,
2013-03-30 08:47:00,47.3,34.9,30.07,West,263,4.0,9.0,62,0.00,,,0.00,Wunderground v.1.15,2013-03-30 12:47:00,
2013-03-30 08:52:00,47.5,35.5,30.07,NW,314,3.0,5.0,63,0.00,,,0.00,Wunderground v.1.15,2013-03-30 12:52:00,
2013-03-30 08:58:00,47.8,34.6,30.06,WNW,282,3.0,7.0,60,0.00,,,0.00,Wunderground v.1.15,2013-03-30 12:58:00,
2013-03-30 09:03:00,48.1,35.7,30.07,NW,316,3.0,4.0,62,0.00,,,0.00,Wunderground v.1.15,2013-03-30 13:03:00,
2013-03-30 09:09:00,48.7,35.8,30.07,WNW,288,3.0,5.0,61,0.00,,,0.00,Wunderground v.1.15,2013-03-30 13:09:00,
2013-03-30 09:14:00,48.9,35.2,30.07,WNW,299,4.0,6.0,59,0.00,,,0.00,Wunderground v.1.15,2013-03-30 13:14:00,
2013-03-30 09:19:00,49.1,35.4,30.07,WNW,300,4.0,6.0,59,0.00,,,0.00,Wunderground v.1.15,2013-03-30 13:19:00,
2013-03-30 09:25:00,49.6,35.4,30.07,WNW,294,3.0,5.0,58,0.00,,,0.00,Wunderground v.1.15,2013-03-30 13:25:00,
2013-03-30 09:30:00,50.0,35.4,30.07,West,281,2.0,2.0,57,0.00,,,0.00,Wunderground v.1.15,2013-03-30 13:30:00,
2013-03-30 09:36:00,51.0,35.8,30.07,WNW,291,2.0,2.0,56,0.00,,,0.00,Wunderground v.1.15,2013-03-30 13:36:00,
2013-03-30 09:42:00,51.7,36.9,30.07,NW,311,1.0,1.0,57,0.00,,,0.00,Wunderground v.1.15,2013-03-30 13:42:00,
2013-03-30 09:47:00,52.4,36.2,30.06,NW,311,1.0,3.0,54,0.00,,,0.00,Wunderground v.1.15,2013-03-30 13:47:00,
2013-03-30 09:53:00,52.2,36.5,30.07,NW,317,2.0,4.0,55,0.00,,,0.00,Wunderground v.1.15,2013-03-30 13:53:00,
2013-03-30 09:59:00,52.9,36.2,30.07,WNW,290,2.0,4.0,53,0.00,,,0.00,Wunderground v.1.15,2013-03-30 13:59:00,
2013-03-30 10:05:00,53.3,36.1,30.07,WNW,300,2.0,5.0,52,0.00,,,0.00,Wunderground v.1.15,2013-03-30 14:05:00,
2013-03-30 10:10:00,53.7,37.0,30.07,NW,304,2.0,2.0,53,0.00,,,0.00,Wunderground v.1.15,2013-03-30 14:10:00,
2013-03-30 10:15:00,54.0,35.8,30.07,NNW,341,2.0,2.0,50,0.00,,,0.00,Wunderground v.1.15,2013-03-30 14:15:00,
2013-03-30 10:21:00,54.5,35.7,30.07,West,270,2.0,4.0,49,0.00,,,0.00,Wunderground v.1.15,2013-03-30 14:21:00,
2013-03-30 10:27:00,54.3,35.5,30.07,West,274,2.0,4.0,49,0.00,,,0.00,Wunderground v.1.15,2013-03-30 14:27:00,
2013-03-30 10:33:00,53.7,34.5,30.07,WSW,242,2.0,6.0,48,0.00,,,0.00,Wunderground v.1.15,2013-03-30 14:33:00,
2013-03-30 10:39:00,53.3,35.1,30.07,West,265,2.0,6.0,50,0.00,,,0.00,Wunderground v.1.15,2013-03-30 14:39:00,
2013-03-30 10:45:00,53.6,34.9,30.07,WSW,248,1.0,3.0,49,0.00,,,0.00,Wunderground v.1.15,2013-03-30 14:45:00,
2013-03-30 10:50:00,54.0,35.8,30.07,NW,311,2.0,2.0,50,0.00,,,0.00,Wunderground v.1.15,2013-03-30 14:50:00,
2013-03-30 10:57:00,53.9,34.1,30.07,NW,305,3.0,6.0,47,0.00,,,0.00,Wunderground v.1.15,2013-03-30 14:57:00,
2013-03-30 11:02:00,53.9,35.2,30.07,WSW,257,3.0,3.0,49,0.00,,,0.00,Wunderground v.1.15,2013-03-30 15:02:00,
2013-03-30 11:07:00,54.1,34.8,30.06,WSW,246,2.0,6.0,48,0.00,,,0.00,Wunderground v.1.15,2013-03-30 15:07:00,
2013-03-30 11:13:00,54.7,34.3,30.06,NW,311,2.0,4.0,46,0.00,,,0.00,Wunderground v.1.15,2013-03-30 15:13:00,
2013-03-30 11:18:00,55.3,35.9,30.06,NNE,21,2.0,4.0,48,0.00,,,0.00,Wunderground v.1.15,2013-03-30 15:18:00,
2013-03-30 11:24:00,55.6,35.1,30.06,NNW,338,2.0,5.0,46,0.00,,,0.00,Wunderground v.1.15,2013-03-30 15:24:00,
2013-03-30 11:30:00,55.7,34.1,30.06,NW,322,2.0,2.0,44,0.00,,,0.00,Wunderground v.1.15,2013-03-30 15:30:00,
2013-03-30 11:36:00,55.7,35.2,30.06,West,261,1.0,4.0,46,0.00,,,0.00,Wunderground v.1.15,2013-03-30 15:36:00,
2013-03-30 11:41:00,56.2,33.4,30.06,WSW,250,1.0,4.0,42,0.00,,,0.00,Wunderground v.1.15,2013-03-30 15:41:00,
2013-03-30 11:47:00,55.3,34.3,30.06,NNW,340,2.0,4.0,45,0.00,,,0.00,Wunderground v.1.15,2013-03-30 15:47:00,
2013-03-30 11:52:00,55.5,33.9,30.06,WSW,254,2.0,4.0,44,0.00,,,0.00,Wunderground v.1.15,2013-03-30 15:52:00,
2013-03-30 11:58:00,56.1,35.0,30.05,NW,306,2.0,4.0,45,0.00,,,0.00,Wunderground v.1.15,2013-03-30 15:58:00,
2013-03-30 12:04:00,57.1,34.2,30.05,WNW,302,3.0,3.0,42,0.00,,,0.00,Wunderground v.1.15,2013-03-30 16:04:00,
2013-03-30 12:09:00,57.6,35.8,30.05,NW,312,2.0,3.0,44,0.00,,,0.00,Wunderground v.1.15,2013-03-30 16:09:00,
2013-03-30 12:15:00,57.8,33.6,30.05,SSW,213,2.0,6.0,40,0.00,,,0.00,Wunderground v.1.15,2013-03-30 16:15:00,
2013-03-30 12:20:00,57.8,34.2,30.04,ENE,61,2.0,2.0,41,0.00,,,0.00,Wunderground v.1.15,2013-03-30 16:20:00,
2013-03-30 12:25:00,58.6,34.3,30.05,WSW,249,1.0,3.0,40,0.00,,,0.00,Wunderground v.1.15,2013-03-30 16:25:00,
2013-03-30 12:31:00,58.1,33.2,30.05,West,261,2.0,3.0,39,0.00,,,0.00,Wunderground v.1.15,2013-03-30 16:31:00,
2013-03-30 12:36:00,56.4,32.4,30.05,SW,217,3.0,5.0,40,0.00,,,0.00,Wunderground v.1.15,2013-03-30 16:36:00,
2013-03-30 12:41:00,55.5,32.8,30.05,West,268,2.0,2.0,42,0.00,,,0.00,Wunderground v.1.15,2013-03-30 16:41:00,
2013-03-30 12:47:00,55.1,33.0,30.05,WNW,285,2.0,4.0,43,0.00,,,0.00,Wunderground v.1.15,2013-03-30 16:47:00,
2013-03-30 12:53:00,54.8,32.7,30.04,West,265,2.0,3.0,43,0.00,,,0.00,Wunderground v.1.15,2013-03-30 16:53:00,
2013-03-30 12:58:00,54.7,31.4,30.04,South,186,1.0,4.0,41,0.00,,,0.00,Wunderground v.1.15,2013-03-30 16:58:00,
2013-03-30 13:04:00,55.3,35.4,30.04,WSW,252,2.0,3.0,47,0.00,,,0.00,Wunderground v.1.15,2013-03-30 17:04:00,
2013-03-30 13:09:00,55.7,34.1,30.04,West,278,3.0,3.0,44,0.00,,,0.00,Wunderground v.1.15,2013-03-30 17:09:00,
2013-03-30 13:15:00,56.4,34.7,30.04,NW,311,2.0,5.0,44,0.00,,,0.00,Wunderground v.1.15,2013-03-30 17:15:00,
2013-03-30 13:21:00,57.2,35.5,30.04,WNW,287,2.0,2.0,44,0.00,,,0.00,Wunderground v.1.15,2013-03-30 17:21:00,
2013-03-30 13:26:00,56.9,32.8,30.04,WSW,243,2.0,4.0,40,0.00,,,0.00,Wunderground v.1.15,2013-03-30 17:26:00,
2013-03-30 13:32:00,55.9,33.7,30.03,West,260,2.0,7.0,43,0.00,,,0.00,Wunderground v.1.15,2013-03-30 17:32:00,
2013-03-30 13:37:00,55.9,33.7,30.04,SW,219,3.0,7.0,43,0.00,,,0.00,Wunderground v.1.15,2013-03-30 17:37:00,
2013-03-30 13:43:00,56.3,32.9,30.03,SW,229,3.0,4.0,41,0.00,,,0.00,Wunderground v.1.15,2013-03-30 17:43:00,
2013-03-30 13:48:00,56.2,33.4,30.04,WSW,244,4.0,6.0,42,0.00,,,0.00,Wunderground v.1.15,2013-03-30 17:48:00,
2013-03-30 13:54:00,56.2,34.6,30.04,SW,223,4.0,5.0,44,0.00,,,0.00,Wunderground v.1.15,2013-03-30 17:54:00,
2013-03-30 13:59:00,56.4,36.9,30.04,SSW,192,3.0,7.0,48,0.00,,,0.00,Wunderground v.1.15,2013-03-30 17:59:00,
2013-03-30 14:05:00,55.2,36.9,30.04,South,184,3.0,8.0,50,0.00,,,0.00,Wunderground v.1.15,2013-03-30 18:05:00,
2013-03-30 14:11:00,53.9,37.1,30.04,SW,227,4.0,4.0,53,0.00,,,0.00,Wunderground v.1.15,2013-03-30 18:11:00,
2013-03-30 14:17:00,53.5,37.3,30.04,WSW,243,5.0,5.0,54,0.00,,,0.00,Wunderground v.1.15,2013-03-30 18:17:00,
2013-03-30 14:22:00,53.7,37.9,30.04,SW,232,5.0,5.0,55,0.00,,,0.00,Wunderground v.1.15,2013-03-30 18:22:00,
2013-03-30 14:28:00,54.0,37.2,30.04,West,261,4.0,5.0,53,0.00,,,0.00,Wunderground v.1.15,2013-03-30 18:28:00,
2013-03-30 14:33:00,53.5,36.3,30.04,West,267,4.0,6.0,52,0.00,,,0.00,Wunderground v.1.15,2013-03-30 18:33:00,
2013-03-30 14:39:00,53.0,36.8,30.04,WSW,237,4.0,7.0,54,0.00,,,0.00,Wunderground v.1.15,2013-03-30 18:39:00,
2013-03-30 14:45:00,53.0,36.8,30.04,SW,225,3.0,5.0,54,0.00,,,0.00,Wunderground v.1.15,2013-03-30 18:45:00,
2013-03-30 14:50:00,53.2,34.5,30.04,SW,219,3.0,5.0,49,0.00,,,0.00,Wunderground v.1.15,2013-03-30 18:50:00,
2013-03-30 14:56:00,52.5,35.4,30.04,WNW,296,4.0,5.0,52,0.00,,,0.00,Wunderground v.1.15,2013-03-30 18:56:00,
2013-03-30 15:02:00,53.0,34.8,30.04,West,263,4.0,5.0,50,0.00,,,0.00,Wunderground v.1.15,2013-03-30 19:02:00,
2013-03-30 15:07:00,53.5,34.8,30.04,SW,225,4.0,6.0,49,0.00,,,0.00,Wunderground v.1.15,2013-03-30 19:07:00,
2013-03-30 15:12:00,54.0,36.3,30.04,West,279,3.0,6.0,51,0.00,,,0.00,Wunderground v.1.15,2013-03-30 19:12:00,
2013-03-30 15:17:00,54.3,36.0,30.03,West,271,3.0,6.0,50,0.00,,,0.00,Wunderground v.1.15,2013-03-30 19:17:00,
2013-03-30 15:23:00,54.5,35.2,30.03,WSW,242,3.0,5.0,48,0.00,,,0.00,Wunderground v.1.15,2013-03-30 19:23:00,
2013-03-30 15:28:00,54.7,35.9,30.03,SW,234,2.0,5.0,49,0.00,,,0.00,Wunderground v.1.15,2013-03-30 19:28:00,
2013-03-30 15:33:00,55.0,34.6,30.03,SW,229,3.0,4.0,46,0.00,,,0.00,Wunderground v.1.15,2013-03-30 19:33:00,
2013-03-30 15:39:00,54.9,35.0,30.03,SW,236,3.0,6.0,47,0.00,,,0.00,Wunderground v.1.15,2013-03-30 19:39:00,
2013-03-30 15:44:00,55.0,34.0,30.03,SSE,159,3.0,6.0,45,0.00,,,0.00,Wunderground v.1.15,2013-03-30 19:44:00,
2013-03-30 15:50:00,54.8,33.8,30.03,South,183,3.0,3.0,45,0.00,,,0.00,Wunderground v.1.15,2013-03-30 19:50:00,
2013-03-30 15:55:00,54.4,33.5,30.03,West,261,3.0,5.0,45,0.00,,,0.00,Wunderground v.1.15,2013-03-30 19:55:00,
2013-03-30 16:01:00,53.6,32.8,30.03,SSW,213,3.0,6.0,45,0.00,,,0.00,Wunderground v.1.15,2013-03-30 20:01:00,
2013-03-30 16:07:00,53.1,32.8,30.03,SSW,213,4.0,7.0,46,0.00,,,0.00,Wunderground v.1.15,2013-03-30 20:07:00,
2013-03-30 16:12:00,52.7,32.5,30.03,South,180,4.0,7.0,46,0.00,,,0.00,Wunderground v.1.15,2013-03-30 20:12:00,
2013-03-30 16:17:00,53.0,33.3,30.03,WNW,282,3.0,7.0,47,0.00,,,0.00,Wunderground v.1.15,2013-03-30 20:17:00,
2013-03-30 16:23:00,53.3,33.6,30.03,SE,126,2.0,2.0,47,0.00,,,0.00,Wunderground v.1.15,2013-03-30 20:23:00,
2013-03-30 16:28:00,53.7,33.9,30.03,SW,228,2.0,6.0,47,0.00,,,0.00,Wunderground v.1.15,2013-03-30 20:28:00,
2013-03-30 16:33:00,53.9,33.0,30.03,West,272,2.0,6.0,45,0.00,,,0.00,Wunderground v.1.15,2013-03-30 20:33:00,
2013-03-30 16:38:00,53.9,32.5,30.03,SW,217,3.0,6.0,44,0.00,,,0.00,Wunderground v.1.15,2013-03-30 20:38:00,
2013-03-30 16:44:00,54.1,32.6,30.03,South,190,2.0,3.0,44,0.00,,,0.00,Wunderground v.1.15,2013-03-30 20:44:00,
2013-03-30 16:50:00,54.3,33.4,30.03,SSW,193,1.0,2.0,45,0.00,,,0.00,Wunderground v.1.15,2013-03-30 20:50:00,
2013-03-30 16:56:00,54.5,33.0,30.03,SSW,209,1.0,4.0,44,0.00,,,0.00,Wunderground v.1.15,2013-03-30 20:56:00,
2013-03-30 17:01:00,54.4,32.3,30.03,WSW,238,2.0,2.0,43,0.00,,,0.00,Wunderground v.1.15,2013-03-30 21:01:00,
2013-03-30 17:06:00,54.3,33.4,30.03,SE,126,2.0,6.0,45,0.00,,,0.00,Wunderground v.1.15,2013-03-30 21:06:00,
2013-03-30 17:11:00,54.1,33.8,30.03,West,278,2.0,2.0,46,0.00,,,0.00,Wunderground v.1.15,2013-03-30 21:11:00,
2013-03-30 17:17:00,53.6,32.2,30.03,West,264,2.0,5.0,44,0.00,,,0.00,Wunderground v.1.15,2013-03-30 21:17:00,
2013-03-30 17:22:00,53.6,32.2,30.03,SW,222,2.0,4.0,44,0.00,,,0.00,Wunderground v.1.15,2013-03-30 21:22:00,
2013-03-30 17:28:00,53.5,32.7,30.03,WSW,238,1.0,5.0,45,0.00,,,0.00,Wunderground v.1.15,2013-03-30 21:28:00,
2013-03-30 17:33:00,53.3,31.4,30.03,South,187,2.0,3.0,43,0.00,,,0.00,Wunderground v.1.15,2013-03-30 21:33:00,
2013-03-30 17:39:00,53.1,30.6,30.03,SSW,213,2.0,6.0,42,0.00,,,0.00,Wunderground v.1.15,2013-03-30 21:39:00,
2013-03-30 17:45:00,52.8,30.9,30.04,SW,215,2.0,6.0,43,0.00,,,0.00,Wunderground v.1.15,2013-03-30 21:45:00,
2013-03-30 17:51:00,52.9,32.1,30.04,WSW,242,1.0,1.0,45,0.00,,,0.00,Wunderground v.1.15,2013-03-30 21:51:00,
2013-03-30 17:57:00,53.0,31.6,30.04,SSW,196,1.0,2.0,44,0.00,,,0.00,Wunderground v.1.15,2013-03-30 21:57:00,
2013-03-30 18:02:00,52.7,31.9,30.04,ESE,118,1.0,1.0,45,0.00,,,0.00,Wunderground v.1.15,2013-03-30 22:02:00,
2013-03-30 18:07:00,52.3,32.6,30.04,SSE,168,2.0,2.0,47,0.00,,,0.00,Wunderground v.1.15,2013-03-30 22:07:00,
2013-03-30 18:13:00,51.6,32.5,30.04,SSW,209,1.0,2.0,48,0.00,,,0.00,Wunderground v.1.15,2013-03-30 22:13:00,
2013-03-30 18:19:00,50.8,33.3,30.04,SE,130,2.0,3.0,51,0.00,,,0.00,Wunderground v.1.15,2013-03-30 22:19:00,
2013-03-30 18:24:00,50.1,33.6,30.04,ESE,108,1.0,4.0,53,0.00,,,0.00,Wunderground v.1.15,2013-03-30 22:24:00,
2013-03-30 18:29:00,49.4,33.9,30.04,SSE,166,1.0,4.0,55,0.00,,,0.00,Wunderground v.1.15,2013-03-30 22:29:00,
2013-03-30 18:34:00,48.8,33.8,30.05,SE,131,1.0,2.0,56,0.00,,,0.00,Wunderground v.1.15,2013-03-30 22:34:00,
2013-03-30 18:40:00,48.2,34.1,30.05,SSE,158,1.0,1.0,58,0.00,,,0.00,Wunderground v.1.15,2013-03-30 22:40:00,
2013-03-30 18:45:00,47.5,35.1,30.05,ESE,119,2.0,3.0,62,0.00,,,0.00,Wunderground v.1.15,2013-03-30 22:45:00,
2013-03-30 18:51:00,46.6,35.1,30.05,East,88,2.0,2.0,64,0.00,,,0.00,Wunderground v.1.15,2013-03-30 22:51:00,
2013-03-30 18:57:00,45.9,35.2,30.05,East,96,1.0,2.0,66,0.00,,,0.00,Wunderground v.1.15,2013-03-30 22:57:00,
2013-03-30 19:03:00,45.2,35.3,30.05,ESE,107,1.0,2.0,68,0.00,,,0.00,Wunderground v.1.15,2013-03-30 23:03:00,
2013-03-30 19:09:00,44.7,35.1,30.06,ESE,106,0.0,2.0,69,0.00,,,0.00,Wunderground v.1.15,2013-03-30 23:09:00,
2013-03-30 19:15:00,44.1,35.3,30.06,ESE,121,0.0,1.0,71,0.00,,,0.00,Wunderground v.1.15,2013-03-30 23:15:00,
2013-03-30 19:21:00,43.6,35.5,30.05,ESE,122,1.0,1.0,73,0.00,,,0.00,Wunderground v.1.15,2013-03-30 23:21:00,
2013-03-30 19:26:00,43.2,35.5,30.06,ESE,119,1.0,2.0,74,0.00,,,0.00,Wunderground v.1.15,2013-03-30 23:26:00,
2013-03-30 19:32:00,42.8,35.4,30.06,SE,130,1.0,2.0,75,0.00,,,0.00,Wunderground v.1.15,2013-03-30 23:32:00,
2013-03-30 19:38:00,42.6,35.6,30.06,ESE,110,1.0,2.0,76,0.00,,,0.00,Wunderground v.1.15,2013-03-30 23:38:00,
2013-03-30 19:43:00,42.4,35.4,30.06,ESE,110,1.0,1.0,76,0.00,,,0.00,Wunderground v.1.15,2013-03-30 23:43:00,
2013-03-30 19:49:00,42.2,35.2,30.06,ESE,110,0.0,1.0,76,0.00,,,0.00,Wunderground v.1.15,2013-03-30 23:49:00,
2013-03-30 19:55:00,41.9,35.2,30.06,ESE,110,0.0,2.0,77,0.00,,,0.00,Wunderground v.1.15,2013-03-30 23:55:00,
2013-03-30 20:00:00,41.8,35.1,30.06,ESE,110,0.0,0.0,77,0.00,,,0.00,Wunderground v.1.15,2013-03-31 00:00:00,
2013-03-30 20:05:00,41.6,35.2,30.07,ESE,110,0.0,0.0,78,0.00,,,0.00,Wunderground v.1.15,2013-03-31 00:05:00,
2013-03-30 20:10:00,41.4,35.1,30.07,ESE,110,0.0,0.0,78,0.00,,,0.00,Wunderground v.1.15,2013-03-31 00:10:00,
2013-03-30 20:16:00,41.1,34.8,30.07,ESE,110,0.0,0.0,78,0.00,,,0.00,Wunderground v.1.15,2013-03-31 00:16:00,
2013-03-30 20:22:00,40.8,34.8,30.07,ESE,118,0.0,0.0,79,0.00,,,0.00,Wunderground v.1.15,2013-03-31 00:22:00,
2013-03-30 20:27:00,40.7,35.0,30.07,SSE,168,0.0,1.0,80,0.00,,,0.00,Wunderground v.1.15,2013-03-31 00:27:00,
2013-03-30 20:32:00,40.8,35.1,30.07,WSW,243,1.0,3.0,80,0.00,,,0.00,Wunderground v.1.15,2013-03-31 00:32:00,
2013-03-30 20:37:00,41.0,35.3,30.07,SSW,201,1.0,3.0,80,0.00,,,0.00,Wunderground v.1.15,2013-03-31 00:37:00,
2013-03-30 20:43:00,41.2,35.2,30.07,SSW,207,1.0,3.0,79,0.00,,,0.00,Wunderground v.1.15,2013-03-31 00:43:00,
2013-03-30 20:48:00,41.3,35.3,30.08,SSW,194,1.0,3.0,79,0.00,,,0.00,Wunderground v.1.15,2013-03-31 00:48:00,
2013-03-30 20:54:00,41.4,35.4,30.08,South,187,1.0,2.0,79,0.00,,,0.00,Wunderground v.1.15,2013-03-31 00:54:00,
2013-03-30 21:00:00,41.5,35.5,30.08,SSE,158,1.0,1.0,79,0.00,,,0.00,Wunderground v.1.15,2013-03-31 01:00:00,
2013-03-30 21:06:00,41.5,35.5,30.08,SSE,155,1.0,2.0,79,0.00,,,0.00,Wunderground v.1.15,2013-03-31 01:06:00,
2013-03-30 21:12:00,41.4,35.4,30.08,South,182,0.0,3.0,79,0.00,,,0.00,Wunderground v.1.15,2013-03-31 01:12:00,
2013-03-30 21:17:00,41.5,35.8,30.08,South,175,1.0,3.0,80,0.00,,,0.00,Wunderground v.1.15,2013-03-31 01:17:00,
2013-03-30 21:23:00,41.5,36.1,30.08,SW,215,1.0,2.0,81,0.00,,,0.00,Wunderground v.1.15,2013-03-31 01:23:00,
2013-03-30 21:29:00,41.5,36.4,30.09,SW,229,1.0,3.0,82,0.00,,,0.00,Wunderground v.1.15,2013-03-31 01:29:00,
2013-03-30 21:34:00,41.4,36.3,30.09,SSW,211,1.0,1.0,82,0.00,,,0.00,Wunderground v.1.15,2013-03-31 01:34:00,
2013-03-30 21:40:00,41.3,36.2,30.09,SW,217,0.0,0.0,82,0.00,,,0.00,Wunderground v.1.15,2013-03-31 01:40:00,
2013-03-30 21:45:00,41.2,36.4,30.09,SSW,192,0.0,2.0,83,0.00,,,0.00,Wunderground v.1.15,2013-03-31 01:45:00,
2013-03-30 21:51:00,41.2,36.7,30.09,WSW,242,1.0,1.0,84,0.00,,,0.00,Wunderground v.1.15,2013-03-31 01:51:00,
2013-03-30 21:56:00,41.1,36.6,30.09,SW,224,1.0,1.0,84,0.00,,,0.00,Wunderground v.1.15,2013-03-31 01:56:00,
2013-03-30 22:01:00,40.9,36.4,30.09,SW,224,0.0,0.0,84,0.00,,,0.00,Wunderground v.1.15,2013-03-31 02:01:00,
2013-03-30 22:06:00,40.7,36.5,30.09,SSW,200,0.0,1.0,85,0.00,,,0.00,Wunderground v.1.15,2013-03-31 02:06:00,
2013-03-30 22:12:00,40.6,36.4,30.09,SSW,200,0.0,0.0,85,0.00,,,0.00,Wunderground v.1.15,2013-03-31 02:12:00,
2013-03-30 22:18:00,40.3,36.1,30.09,South,173,0.0,2.0,85,0.00,,,0.00,Wunderground v.1.15,2013-03-31 02:18:00,
2013-03-30 22:23:00,40.2,36.6,30.09,South,188,0.0,0.0,87,0.00,,,0.00,Wunderground v.1.15,2013-03-31 02:23:00,
2013-03-30 22:29:00,40.1,36.5,30.09,SSW,194,0.0,0.0,87,0.00,,,0.00,Wunderground v.1.15,2013-03-31 02:29:00,
2013-03-30 22:34:00,40.0,36.4,30.10,SSW,194,0.0,0.0,87,0.00,,,0.00,Wunderground v.1.15,2013-03-31 02:34:00,
2013-03-30 22:40:00,39.8,36.2,30.09,SSW,193,0.0,0.0,87,0.00,,,0.00,Wunderground v.1.15,2013-03-31 02:40:00,
2013-03-30 22:45:00,39.7,36.1,30.09,SSW,193,0.0,0.0,87,0.00,,,0.00,Wunderground v.1.15,2013-03-31 02:45:00,
2013-03-30 22:51:00,39.5,36.0,30.09,SSW,193,0.0,0.0,87,0.00,,,0.00,Wunderground v.1.15,2013-03-31 02:51:00,
2013-03-30 22:56:00,39.3,35.8,30.09,SSW,193,0.0,0.0,87,0.00,,,0.00,Wunderground v.1.15,2013-03-31 02:56:00,
2013-03-30 23:02:00,39.1,35.6,30.09,SSW,193,0.0,0.0,87,0.00,,,0.00,Wunderground v.1.15,2013-03-31 03:02:00,
2013-03-30 23:07:00,38.9,35.4,30.09,SSW,193,0.0,0.0,87,0.00,,,0.00,Wunderground v.1.15,2013-03-31 03:07:00,
2013-03-30 23:13:00,38.7,35.5,30.09,SSW,193,0.0,0.0,88,0.00,,,0.00,Wunderground v.1.15,2013-03-31 03:13:00,
2013-03-30 23:18:00,38.4,35.2,30.09,SSW,193,0.0,0.0,88,0.00,,,0.00,Wunderground v.1.15,2013-03-31 03:18:00,
2013-03-30 23:23:00,38.2,35.2,30.10,SSW,193,0.0,0.0,89,0.00,,,0.00,Wunderground v.1.15,2013-03-31 03:23:00,
2013-03-30 23:29:00,38.0,35.0,30.10,SSW,193,0.0,0.0,89,0.00,,,0.00,Wunderground v.1.15,2013-03-31 03:29:00,
2013-03-30 23:34:00,38.0,35.3,30.09,SSW,193,0.0,0.0,90,0.00,,,0.00,Wunderground v.1.15,2013-03-31 03:34:00,
2013-03-30 23:39:00,38.0,35.6,30.09,SSW,193,0.0,0.0,91,0.00,,,0.00,Wunderground v.1.15,2013-03-31 03:39:00,
2013-03-30 23:44:00,37.9,35.2,30.09,SSW,193,0.0,0.0,90,0.00,,,0.00,Wunderground v.1.15,2013-03-31 03:44:00,
2013-03-30 23:50:00,37.8,35.1,30.09,SSW,195,0.0,0.0,90,0.00,,,0.00,Wunderground v.1.15,2013-03-31 03:50:00,
2013-03-30 23:56:00,37.6,35.2,30.09,SSW,198,0.0,0.0,91,0.00,,,0.00,Wunderground v.1.15,2013-03-31 03:56:00,